30.06.2024;16:00;74
30.06.2024;15:00;75
30.06.2024;14:00;77
30.06.2024;13:00;79
30.06.2024;12:00;82
30.06.2024;11:00;86
30.06.2024;10:00;85
30.06.2024;09:00;82
30.06.2024;08:00;77
30.06.2024;07:00;72
30.06.2024;06:00;82
30.06.2024;05:00;91
30.06.2024;04:00;96
30.06.2024;03:00;83
30.06.2024;02:00;44
30.06.2024;01:00;53
30.06.2024;00:00;71
29.06.2024;23:00;70
29.06.2024;22:00;65
29.06.2024;21:00;82
29.06.2024;20:00;102
29.06.2024;19:00;110
29.06.2024;18:00;116
29.06.2024;17:00;117
29.06.2024;16:00;117
29.06.2024;15:00;115
29.06.2024;14:00;111
29.06.2024;13:00;104
29.06.2024;12:00;84
29.06.2024;11:00;65
29.06.2024;10:00;50
29.06.2024;09:00;41
29.06.2024;08:00;41
29.06.2024;07:00;26
29.06.2024;06:00;17
29.06.2024;05:00;27
29.06.2024;04:00;30
29.06.2024;03:00;21
29.06.2024;02:00;14
29.06.2024;01:00;20
29.06.2024;00:00;22
28.06.2024;23:00;48
28.06.2024;22:00;69
28.06.2024;21:00;80
28.06.2024;20:00;88
28.06.2024;19:00;91
28.06.2024;18:00;92
28.06.2024;17:00;91
